Lincoln, NE

5:03 AM CDT on October 20, 2017 (GMT -0500)
Lincoln Municipal

Weather History for KLNK - October, 2011

Change the Weather History Date:

Monday, October 31, 2011

  Actual Average Record
Temperature  
Mean Temperature 46 °F 47 °F  
Max Temperature 69 °F 59 °F 83 °F (1950)
Min Temperature 22 °F 35 °F 11 °F (1993)
Degree Days  
Heating Degree Days 19 18  
Month to date heating degree days 321 380  
Since 1 July heating degree days 478 479  
Cooling Degree Days 0 0  
Month to date cooling degree days 37 15  
Year to date cooling degree days 1296 1173  
Moisture  
Dew Point 27 °F    
Average Humidity 52    
Maximum Humidity 81    
Minimum Humidity 22    
Precipitation  
Precipitation 0.00 in 0.05 in 2.07 in (1920)
Month to date precipitation 0.93 1.97  
Year to date precipitation 25.93 26.57  
Snow  
Snow 0.00 in 0.00 in - ()
Month to date snowfall 0.0 0.7  
Since 1 July snowfall 0.0 0.7  
Snow Depth 0.00 in    
Sea Level Pressure  
Sea Level Pressure 30.02 in    
Wind  
Wind Speed 6 mph (South)    
Max Wind Speed 18 mph    
Max Gust Speed 24 mph    
Visibility 10 miles    
Events      
T = Trace of Precipitation, MM = Missing Value Source: NWS Daily Summary

Daily Weather History Graph

Daily Weather History Graph

Search for Another Location

Airport or City:

Trip Planner

Search our weather history database for the weather conditions in past years. The results will help you decide how hot, cold, wet, or windy it might be!

Date:

Astronomy

Oct. 31, 2011 Rise Set
Actual Time 7:56 AM CDT 6:24 PM CDT
Civil Twilight 7:27 AM CDT 6:52 PM CDT
Nautical Twilight 6:55 AM CDT 7:25 PM CDT
Astronomical Twilight 6:23 AM CDT 7:57 PM CDT
Moon 1:04 PM CDT (10/31) 11:01 PM CDT (10/31)
Length of Visible Light 11h 25m
Length of Day
10h 28m
Waxing Crescent, 30% of the Moon is Illuminated
Oct 31
Waxing Crescent
Nov 2
First Quarter
Nov 10
Full
Nov 18
Last Quarter
Nov 25
New

Hourly Weather History & Observations

Time (CDT) Temp. Dew Point Humidity Pressure Visibility Wind Dir Wind Speed Gust Speed Precip Events Conditions
12:54 AM 35.1 °F 23.0 °F 61% 30.12 in 10.0 mi Calm Calm - N/A   Clear
1:54 AM 33.1 °F 23.0 °F 66% 30.12 in 10.0 mi Calm Calm - N/A   Clear
2:54 AM 28.9 °F 21.0 °F 72% 30.13 in 10.0 mi Calm Calm - N/A   Clear
3:54 AM 28.9 °F 21.0 °F 72% 30.12 in 10.0 mi Calm Calm - N/A   Clear
4:54 AM 25.0 °F 19.9 °F 81% 30.11 in 10.0 mi Calm Calm - N/A   Clear
5:54 AM 24.8 °F 19.4 °F 80% 30.09 in 10.0 mi Calm Calm - N/A   Clear
6:54 AM 25.0 °F 19.9 °F 81% 30.12 in 10.0 mi Calm Calm - N/A   Clear
7:54 AM 27.0 °F 21.0 °F 78% 30.11 in 10.0 mi Calm Calm - N/A   Clear
8:54 AM 30.9 °F 24.1 °F 76% 30.12 in 10.0 mi Calm Calm - N/A   Clear
9:54 AM 36.0 °F 28.0 °F 73% 30.11 in 10.0 mi Calm Calm - N/A   Clear
10:54 AM 46.9 °F 27.0 °F 46% 30.09 in 10.0 mi South 4.6 mph - N/A   Clear
11:54 AM 55.9 °F 28.0 °F 34% 30.06 in 10.0 mi South 11.5 mph - N/A   Clear
12:54 PM 61.0 °F 28.0 °F 29% 30.03 in 10.0 mi SSE 10.4 mph - N/A   Clear
1:54 PM 66.0 °F 28.9 °F 25% 29.98 in 10.0 mi South 10.4 mph - N/A   Clear
2:54 PM 68.0 °F 28.9 °F 23% 29.95 in 10.0 mi South 10.4 mph 18.4 mph N/A   Clear
3:54 PM 69.1 °F 30.0 °F 23% 29.93 in 10.0 mi South 12.7 mph - N/A   Clear
4:54 PM 68.0 °F 30.9 °F 25% 29.91 in 10.0 mi South 12.7 mph - N/A   Clear
5:54 PM 63.0 °F 33.1 °F 33% 29.91 in 10.0 mi SSE 9.2 mph - N/A   Clear
6:54 PM 53.6 °F 30.2 °F 41% 29.91 in 10.0 mi South 9.2 mph - N/A   Clear
7:54 PM 54.0 °F 32.0 °F 43% 29.92 in 10.0 mi South 12.7 mph - N/A   Clear
8:54 PM 54.0 °F 32.0 °F 43% 29.91 in 10.0 mi South 11.5 mph - N/A   Clear
9:54 PM 52.0 °F 32.0 °F 47% 29.91 in 10.0 mi South 9.2 mph - N/A   Clear
10:54 PM 46.9 °F 32.0 °F 56% 29.90 in 10.0 mi South 8.1 mph - N/A   Clear
11:54 PM 50.0 °F 36.0 °F 59% 29.87 in 10.0 mi South 10.4 mph - N/A   Clear